Location: Lewisville
(33.0462°N, 96.9942°W)
Time: 08:15:15
(UTC-06:00)

LightSail 2 - Visible Passes

Search period start: 04 December 2021 00:00
Search period end: 14 December 2021 00:00
Orbit: 680 x 689 km, 24.0° (Epoch: 03 December)

Date Brightness Start Highest point End Pass type
(mag) Time Alt. Az. Time Alt. Az. Time Alt. Az.
04 Dec 7.2 18:50:39 10° S 18:53:04 13° SSE 18:54:45 12° SE visible
05 Dec 6.8 19:26:47 10° SW 19:30:18 21° S 19:30:18 21° S visible
06 Dec 7.1 18:20:35 10° SSW 18:23:44 17° SSE 18:26:54 10° SE visible
06 Dec 7.2 20:03:50 10° SW 20:05:47 20° SW 20:05:47 20° SW visible
07 Dec 6.6 18:57:11 10° SW 19:01:10 24° S 19:02:53 20° SE visible
08 Dec 7.0 17:50:41 10° SSW 17:54:18 20° SSE 17:57:55 10° ESE visible
08 Dec 6.5 19:34:21 10° WSW 19:38:20 28° S 19:38:20 28° S visible
09 Dec 6.6 18:27:32 10° SW 18:31:41 26° S 18:35:23 12° ESE visible
09 Dec 7.3 20:11:50 10° WSW 20:13:45 19° SW 20:13:45 19° SW visible
10 Dec 6.5 19:04:48 10° WSW 19:09:05 29° S 19:10:48 23° SSE visible
11 Dec 6.7 17:57:50 10° SW 18:02:04 28° S 18:06:19 10° ESE visible
11 Dec 6.7 19:42:20 10° WSW 19:46:14 25° SSW 19:46:14 25° SSW visible
12 Dec 6.7 18:35:10 10° WSW 18:39:24 28° S 18:43:20 11° SE visible
12 Dec 7.7 20:20:17 10° WSW 20:21:42 15° SW 20:21:42 15° SW visible
13 Dec 6.9 19:12:47 10° WSW 19:16:40 23° S 19:18:49 17° SSE visible
